GW3795 Weather Reports


Display with metric or nautical units.
time (UTC)temp
F
wind
direction
speed
MPH
gust
MPH
rain 1hr
in
rain 24hr
in
rain mn
in
humidity
%
barometer
mb
20260505054412 69 278 3.0 6.0 0.00 0.00 0.00 50 1007.1
20260505053910 69 218 2.0 6.0 0.00 0.00 0.00 50 1006.9
20260505053406 69 257 4.0 7.0 0.00 0.00 0.00 50 1007.0
20260505052903 69 278 5.0 8.0 0.00 0.00 0.00 49 1006.9
20260505052400 69 305 1.0 5.0 0.00 0.00 0.00 50 1007.1
20260505051857 69 273 4.0 6.0 0.00 0.00 0.00 49 1006.7
20260505051354 69 254 8.0 8.0 0.00 0.00 0.00 49 1006.9
20260505050852 70 277 4.0 6.0 0.00 0.00 0.00 49 1007.2
20260505050351 70 235 3.0 4.0 0.00 0.00 0.00 49 1007.2
20260505041318 70 267 4.0 7.0 0.00 0.00 0.00 50 1007.5
20260505040815 70 255 4.0 9.0 0.00 0.00 0.00 50 1007.7
20260505040313 70 215 2.0 8.0 0.00 0.00 0.00 50 1007.7
20260505035809 70 321 0.0 8.0 0.00 0.00 0.00 50 1007.6
20260505035305 70 237 6.0 9.0 0.00 0.00 0.00 50 1007.6
20260505034802 70 265 2.0 8.0 0.00 0.00 0.00 50 1007.7
20260505034259 70 261 6.0 6.0 0.00 0.00 0.00 50 1007.6
20260505033756 70 328 2.0 3.0 0.00 0.00 0.00 51 1007.5
20260505033253 69 268 3.0 6.0 0.00 0.00 0.00 51 1007.8
20260505032751 69 232 2.0 6.0 0.00 0.00 0.00 52 1007.8
20260505032247 69 247 3.0 8.0 0.00 0.00 0.00 52 1007.5
20260505031744 69 148 2.0 6.0 0.00 0.00 0.00 52 1007.6
20260505031240 69 256 3.0 6.0 0.00 0.00 0.00 53 1007.7
20260505030738 69 304 3.0 4.0 0.00 0.00 0.00 53 1007.6
20260505030234 69 279 0.0 1.0 0.00 0.00 0.00 54 1007.6
20260505025729 69 64 1.0 2.0 0.00 0.00 0.00 54 1007.3
20260505025228 69 312 1.0 2.0 0.00 0.00 0.00 54 1007.4
20260505024726 69 46 0.0 1.0 0.00 0.00 0.00 54 1007.4
20260505024223 68 292 2.0 2.0 0.00 0.00 0.00 54 1007.3
20260505023720 69 81 0.0 0.0 0.00 0.00 0.00 54 1007.2
20260505023217 69 2 1.0 2.0 0.00 0.00 0.00 55 1007.2
20260505022715 69 268 0.0 4.0 0.00 0.00 0.00 55 1007.2
20260505022211 69 173 0.0 1.0 0.00 0.00 0.00 55 1007.0
20260505021708 69 47 0.0 1.0 0.00 0.00 0.00 54 1007.0
20260505021205 69 257 0.0 3.0 0.00 0.00 0.00 55 1007.0
20260505020701 69 103 0.0 1.0 0.00 0.00 0.00 54 1006.6
20260505020156 69 39 0.0 0.0 0.00 0.00 0.00 54 1006.9
20260505015654 69 270 2.0 4.0 0.00 0.00 0.00 54 1006.5
20260505015150 70 299 0.0 2.0 0.00 0.00 0.00 54 1006.4
20260505014648 70 15 0.0 3.0 0.00 0.00 0.00 53 1006.4
20260505014145 70 100 0.0 1.0 0.00 0.00 0.00 53 1006.4
20260505013642 70 2 0.0 2.0 0.00 0.00 0.00 52 1006.5
20260505013139 70 22 0.0 0.0 0.00 0.00 0.00 52 1006.4
20260505012637 71 328 0.0 1.0 0.00 0.00 0.00 52 1006.2
20260505012134 71 90 0.0 2.0 0.00 0.00 0.00 51 1006.2
20260505011629 71 148 0.0 3.0 0.00 0.00 0.00 51 1006.3
20260505011128 71 10 0.0 1.0 0.00 0.00 0.00 50 1006.1
20260505010627 72 263 2.0 3.0 0.00 0.00 0.00 49 1006.1
20260505010124 72 49 0.0 3.0 0.00 0.00 0.00 49 1006.3
20260505005620 72 203 1.0 2.0 0.00 0.00 0.00 48 1006.2
20260505005118 72 196 0.0 1.0 0.00 0.00 0.00 48 1006.2
20260505004615 73 256 0.0 2.0 0.00 0.00 0.00 47 1006.2
20260505004112 73 262 2.0 2.0 0.00 0.00 0.00 47 1006.3
20260505003609 73 294 0.0 2.0 0.00 0.00 0.00 46 1006.2
20260505003106 73 254 1.0 5.0 0.00 0.00 0.00 46 1006.1
20260505002601 73 253 1.0 2.0 0.00 0.00 0.00 45 1006.1
20260505002101 74 259 4.0 5.0 0.00 0.00 0.00 45 1006.1
20260505001557 74 106 1.0 4.0 0.00 0.00 0.00 44 1006.2
20260505001054 74 230 0.0 3.0 0.00 0.00 0.00 44 1006.4
20260505000552 75 227 0.0 5.0 0.00 0.00 0.00 43 1006.4
20260505000049 75 279 2.0 2.0 0.00 0.00 0.00 43 1006.3
20260504235546 75 243 1.0 3.0 0.00 0.00 0.00 43 1006.5
20260504235043 75 281 6.0 6.0 0.00 0.00 0.00 42 1006.6
20260504234539 76 253 4.0 9.0 0.00 0.00 0.00 41 1006.6
20260504234037 76 312 1.0 5.0 0.00 0.00 0.00 41 1006.7
20260504233532 76 328 2.0 9.0 0.00 0.00 0.00 41 1007.0
20260504233029 76 227 3.0 11.0 0.00 0.00 0.00 40 1006.9
20260504232526 77 312 4.0 11.0 0.00 0.00 0.00 40 1007.0
20260504232024 77 6 2.0 10.0 0.00 0.00 0.00 39 1007.2
20260504231520 77 249 4.0 11.0 0.00 0.00 0.00 38 1007.0
20260504231016 77 251 9.0 10.0 0.00 0.00 0.00 38 1007.2
20260504230513 78 252 8.0 9.0 0.00 0.00 0.00 38 1007.0
20260504230012 78 237 7.0 11.0 0.00 0.00 0.00 38 1007.0
20260504225508 78 320 0.0 7.0 0.00 0.00 0.00 39 1007.2
20260504225005 78 258 8.0 10.0 0.00 0.00 0.00 38 1007.3
20260504224502 78 281 5.0 11.0 0.00 0.00 0.00 38 1007.2
20260504223959 78 271 5.0 9.0 0.00 0.00 0.00 38 1007.1
20260504223455 78 167 3.0 6.0 0.00 0.00 0.00 38 1007.2
20260504222951 78 256 6.0 12.0 0.00 0.00 0.00 38 1007.2
20260504222449 78 256 11.0 17.0 0.00 0.00 0.00 37 1007.1
20260504221946 78 248 12.0 13.0 0.00 0.00 0.00 38 1007.1
20260504221443 78 244 8.0 9.0 0.00 0.00 0.00 41 1007.1
20260504220940 78 316 1.0 5.0 0.00 0.00 0.00 43 1007.0
20260504220436 77 249 4.0 4.0 0.00 0.00 0.00 44 1007.1
20260504215934 77 191 2.0 4.0 0.00 0.00 0.00 43 1007.1
20260504215430 77 173 2.0 2.0 0.00 0.00 0.00 43 1007.3
20260504214927 77 180 0.0 3.0 0.00 0.00 0.00 43 1007.4
20260504214423 77 176 2.0 2.0 0.00 0.00 0.00 42 1007.5
20260504213920 77 134 2.0 4.0 0.00 0.00 0.00 42 1007.5
20260504213416 78 220 0.0 5.0 0.00 0.00 0.00 42 1007.5
20260504212914 78 260 1.0 4.0 0.00 0.00 0.00 40 1007.7
20260504212409 78 286 2.0 5.0 0.00 0.00 0.00 41 1007.8
20260504211907 78 93 2.0 3.0 0.00 0.00 0.00 40 1007.9
20260504211403 77 262 2.0 8.0 0.00 0.00 0.00 40 1008.0
20260504210900 77 292 1.0 6.0 0.00 0.00 0.00 39 1008.0
20260504210357 78 249 4.0 8.0 0.00 0.00 0.00 38 1008.0
20260504205854 78 193 2.0 11.0 0.00 0.00 0.00 39 1008.0
20260504205352 78 301 2.0 11.0 0.00 0.00 0.00 38 1008.3
20260504204850 78 250 5.0 12.0 0.00 0.00 0.00 37 1007.9
20260504204348 77 337 3.0 11.0 0.00 0.00 0.00 39 1008.3
20260504203848 78 184 2.0 4.0 0.00 0.00 0.00 41 1008.3
20260504203344 78 290 2.0 11.0 0.00 0.00 0.00 39 1008.2
20260504202840 78 244 4.0 13.0 0.00 0.00 0.00 43 1008.2
20260504202337 77 233 2.0 9.0 0.00 0.00 0.00 43 1008.3
20260504201833 76 221 4.0 10.0 0.00 0.00 0.00 43 1008.4
20260504201331 76 269 10.0 13.0 0.00 0.00 0.00 43 1008.5
20260504200828 76 336 6.0 13.0 0.00 0.00 0.00 43 1008.8
20260504200325 77 291 7.0 9.0 0.00 0.00 0.00 42 1008.7
20260504195821 76 349 0.0 6.0 0.00 0.00 0.00 43 1008.7
20260504195317 75 259 5.0 8.0 0.00 0.00 0.00 44 1008.8
20260504194814 75 231 2.0 11.0 0.00 0.00 0.00 44 1009.0
20260504194310 75 236 5.0 10.0 0.00 0.00 0.00 43 1009.2
20260504193806 75 256 5.0 10.0 0.00 0.00 0.00 44 1009.3
20260504193304 75 243 8.0 11.0 0.00 0.00 0.00 44 1009.1
20260504192802 75 299 7.0 13.0 0.00 0.00 0.00 44 1009.3
20260504192300 74 313 4.0 11.0 0.00 0.00 0.00 46 1009.4
20260504191758 74 320 4.0 9.0 0.00 0.00 0.00 46 1009.5
20260504191255 74 306 6.0 9.0 0.00 0.00 0.00 48 1009.4
20260504190750 74 243 7.0 7.0 0.00 0.00 0.00 48 1009.5
20260504190247 74 332 6.0 7.0 0.00 0.00 0.00 49 1009.6
20260504185743 74 270 6.0 9.0 0.00 0.00 0.00 49 1009.7
20260504185241 73 262 3.0 5.0 0.00 0.00 0.00 51 1009.7
20260504184737 72 314 4.0 9.0 0.00 0.00 0.00 51 1010.1
20260504184232 71 263 3.0 8.0 0.00 0.00 0.00 52 1009.8
20260504183728 71 265 6.0 10.0 0.00 0.00 0.00 52 1009.8
20260504183226 71 254 4.0 6.0 0.00 0.00 0.00 52 1009.8
20260504182724 72 259 8.0 11.0 0.00 0.00 0.00 51 1009.9
20260504182221 71 342 2.0 8.0 0.00 0.00 0.00 52 1009.8
20260504181718 71 265 7.0 8.0 0.00 0.00 0.00 52 1009.8
20260504181215 70 348 5.0 6.0 0.00 0.00 0.00 51 1009.7
20260504180714 71 152 4.0 9.0 0.00 0.00 0.00 51 1009.7
20260504180213 70 303 6.0 15.0 0.00 0.00 0.00 51 1009.6
20260504175710 70 339 3.0 17.0 0.00 0.00 0.00 51 1009.5
20260504175206 70 276 7.0 10.0 0.00 0.00 0.00 50 1009.3
20260504174704 70 274 6.0 14.0 0.00 0.00 0.00 51 1009.4
20260504174202 71 265 8.0 11.0 0.00 0.00 0.00 49 1009.6
20260504173658 71 129 2.0 9.0 0.00 0.00 0.00 50 1009.3
20260504173155 71 254 6.0 8.0 0.00 0.00 0.00 49 1009.3
20260504172652 71 195 1.0 15.0 0.00 0.00 0.00 50 1009.3
20260504172148 70 263 6.0 11.0 0.00 0.00 0.00 51 1009.5
20260504171644 70 198 2.0 10.0 0.00 0.00 0.00 53 1009.6
20260504171142 70 254 9.0 15.0 0.00 0.00 0.00 51 1009.5
20260504170638 70 255 2.0 10.0 0.00 0.00 0.00 52 1009.1
20260504170136 71 232 2.0 4.0 0.00 0.00 0.00 53 1008.9
20260504151027 66 243 2.0 5.0 0.00 0.00 0.00 56 1010.1
20260504150525 65 262 4.0 4.0 0.00 0.00 0.00 57 1010.0
20260504140950 63 69 2.0 5.0 0.00 0.00 0.00 57 1010.1
20260504140447 62 231 2.0 7.0 0.00 0.00 0.00 58 1010.2
20260504130412 58 141 3.0 3.0 0.00 0.00 0.00 63 1010.7
20260504110259 55 251 1.0 6.0 0.00 0.00 0.00 60 1010.6
20260504100222 54 271 0.0 2.0 0.00 0.00 0.00 59 1010.9
20260504081615 52 14 3.0 5.0 0.00 0.00 0.00 63 1011.5
20260504081111 52 352 0.0 3.0 0.00 0.00 0.00 62 1011.6
20260504080608 52 340 1.0 3.0 0.00 0.00 0.00 61 1011.8
20260504080105 52 2 0.0 5.0 0.00 0.00 0.00 61 1011.4